Wetbulb
62.17 62.21 61.93 61.85 61.70 61.28 61.61 60.94 60.26 59.57 59.41 59.51 59.61 59.57 60.00 60.61 60.49 59.94 59.38 58.52 56.05 55.56 54.92 54.46 55.39 55.85 51.88 50.56 51.78 55.32 58.48 55.90 54.02 53.32 49.69 48.68 47.90 46.88 44.95 45.55 46.58 45.08 46.57 47.27 48.51 47.60 47.66
61.67 61.71 61.57 61.41 61.30 61.20 61.56 61.01 60.25 59.40 59.26 59.14 59.10 58.98 59.28 59.65 59.99 59.71 59.32 57.98 55.71 54.95 54.47 54.11 54.96 55.18 48.05 46.88 58.17 53.33 50.80 51.62 51.68 51.25 49.09 48.70 47.66 48.18 46.02 45.27 45.07 45.91 45.96 46.67 47.33 47.43 47.68
61.76 61.32 61.18 60.82 60.58 60.56 60.85 59.97 59.42 59.16 59.27 59.11 59.03 58.55 58.74 59.02 59.10 59.00 58.98 56.46 54.89 54.14 53.87 53.54 54.37 51.62 45.53 51.37 56.95 52.25 51.10 51.08 51.01 50.44 48.23 49.60 50.02 47.77 47.38 45.08 47.21 46.14 43.77 45.75 46.25 47.45 47.37
61.45 61.12 60.95 60.30 59.32 57.90 57.38 56.92 57.17 57.66 57.80 57.90 58.25 58.33 58.03 58.19 58.23 57.83 56.38 54.88 53.64 53.59 53.72 53.84 54.73 50.21 44.52 54.38 51.53 51.19 50.67 51.09 49.86 50.48 50.01 51.08 50.18 48.11 46.93 48.14 46.09 43.58 42.92 40.26 44.83 46.68 47.68
58.13 59.09 58.99 57.41 56.68 56.12 56.36 56.84 57.12 57.78 57.94 57.92 57.75 56.64 56.04 55.04 54.59 53.98 53.47 52.84 52.42 52.44 52.90 54.57 49.77 46.26 44.44 54.84 50.19 52.96 52.33 49.67 48.82 48.80 49.67 50.96 49.69 45.91 46.37 42.77 40.28 39.60 37.53 38.73 41.85 46.06 46.18
57.71 57.66 56.60 55.89 55.61 55.63 55.73 56.54 56.50 56.72 56.46 56.26 55.88 55.20 54.67 54.09 53.19 52.58 52.06 51.71 52.32 51.62 52.21 53.24 49.10 44.05 48.12 49.87 50.94 50.18 50.58 49.68 47.60 47.19 46.58 46.52 44.80 42.54 41.41 40.20 35.25 36.33 36.78 37.81 39.21 43.45 43.64
56.38 57.16 57.13 56.22 55.67 55.59 55.96 56.66 56.12 55.66 55.86 55.68 55.22 54.57 53.58 52.52 52.03 51.33 50.71 49.93 47.56 46.19 47.48 45.39 44.66 45.16 47.16 50.21 51.56 48.89 49.00 47.53 47.38 45.61 40.65 43.36 39.86 37.17 40.28 41.49 41.01 39.10 37.28 37.57 40.30 43.41 41.48
56.39 56.71 57.17 56.24 55.84 55.56 55.98 56.66 55.78 55.04 55.19 55.32 54.63 53.90 53.21 52.71 51.68 50.92 50.88 48.08 47.00 47.23 42.55 47.00 46.41 45.25 47.30 49.09 45.22 48.11 49.22 44.34 42.99 39.73 41.34 39.54 36.88 41.51 41.89 40.70 39.72 39.04 37.40 37.23 40.16 42.24 41.29
56.24 56.42 56.89 55.97 56.28 56.00 55.88 56.32 55.55 54.71 54.73 54.88 54.74 53.91 53.47 52.08 51.23 49.41 46.83 48.49 49.33 47.77 41.16 42.96 46.12 45.72 46.69 47.55 45.00 46.68 47.71 44.00 40.98 38.28 39.10 39.42 41.69 41.84 40.09 39.11 37.41 37.71 36.52 36.96 36.87 40.17 41.57
55.17 55.25 55.76 55.80 55.48 56.14 56.02 55.86 55.85 55.19 54.25 54.27 54.38 53.70 52.51 51.52 48.32 46.96 45.55 48.89 49.72 47.24 36.50 37.35 40.49 43.93 46.09 47.32 44.02 49.57 50.15 46.47 40.76 39.43 38.80 38.55 42.11 40.57 38.02 37.57 38.80 35.15 40.00 39.31 38.03 36.32 32.41
54.00 54.01 54.09 54.15 54.06 53.90 53.69 53.63 53.61 53.92 54.53 54.04 53.71 53.35 51.88 50.76 45.74 43.64 46.17 48.18 48.00 45.71 22.93 39.11 40.45 48.53 46.71 44.20 44.36 42.70 48.87 45.44 41.70 39.63 39.86 38.08 37.69 37.20 37.57 39.44 40.12 38.20 40.90 39.25 38.62 36.24 34.95
53.18 52.95 52.48 52.05 51.41 51.46 51.82 52.07 52.46 52.62 53.49 53.88 53.75 53.04 50.79 47.70 45.80 47.01 47.82 47.90 46.55 31.28 23.39 36.49 40.80 40.11 40.50 42.56 43.29 44.31 44.41 46.64 44.80 40.59 39.70 38.83 42.11 40.48 39.82 40.64 41.29 41.67 39.55 38.65 36.75 35.95 29.31
51.61 51.23 50.56 49.83 49.56 49.75 50.26 50.58 50.22 50.19 51.27 53.54 53.52 52.69 50.44 48.41 43.60 47.01 47.74 45.41 31.37 24.69 35.96 33.84 35.58 39.61 39.21 38.32 39.89 40.20 40.00 38.79 36.49 33.15 34.03 39.10 39.93 41.90 42.43 39.65 40.63 39.44 35.77 30.48 27.52 27.65 28.61
50.04 49.34 49.01 48.75 48.54 48.40 48.42 48.43 48.32 48.08 48.79 51.90 52.94 52.00 51.12 49.63 48.66 47.25 46.64 36.57 24.98 30.28 30.85 37.14 36.70 37.21 35.35 38.17 37.83 38.29 36.84 35.72 39.77 37.54 34.73 32.03 32.27 38.84 41.72 39.78 38.42 37.68 36.78 31.43 24.61 25.75 30.33
48.77 48.51 48.23 47.91 47.72 47.46 47.49 47.39 47.08 47.00 48.93 50.61 52.16 50.37 48.08 49.29 50.13 48.87 41.89 30.05 28.53 30.70 33.78 32.63 34.97 32.61 32.42 35.37 36.88 36.84 35.69 34.40 37.03 39.10 34.48 32.78 32.16 39.70 41.49 42.78 41.38 36.73 33.58 39.42 31.79 32.59 28.78
48.37 48.09 47.74 47.56 47.46 47.25 47.15 46.74 46.58 46.83 47.99 46.72 44.08 43.44 41.42 44.00 50.14 45.75 36.77 31.99 31.70 35.27 35.76 34.80 29.93 32.75 29.11 32.03 33.13 33.63 34.45 38.93 38.64 40.80 41.00 36.18 30.18 37.45 39.21 41.56 41.84 40.03 41.73 33.40 33.09 25.83 24.98
47.12 46.81 46.56 46.65 46.51 46.57 46.61 46.59 46.57 46.49 45.70 43.51 39.84 36.47 40.36 43.37 47.99 37.82 30.76 31.85 33.81 37.17 37.07 33.80 31.57 30.72 31.17 31.09 32.65 31.94 33.16 37.45 40.16 39.94 41.67 39.36 34.53 33.98 38.45 35.78 35.06 36.42 35.51 36.93 36.65 33.62 27.48
46.75 46.22 45.65 46.00 45.43 45.26 45.64 46.36 46.56 46.14 43.55 37.26 32.05 27.91 40.52 45.37 33.90 31.97 31.32 34.04 36.73 34.49 37.24 35.74 35.62 33.91 32.00 32.95 31.15 31.79 31.96 36.53 41.04 41.02 36.05 38.50 35.81 29.72 32.66 39.18 40.68 38.91 35.62 35.51 29.42 28.78 33.58
46.50 45.85 45.51 45.24 45.11 44.91 44.96 45.40 46.48 45.29 42.39 35.31 28.92 31.65 40.16 42.86 29.32 30.11 33.66 33.57 35.18 34.35 34.66 34.90 33.83 34.83 35.46 32.60 29.22 32.35 34.15 40.19 40.84 39.20 36.26 37.34 32.42 24.99 28.11 33.47 36.29 33.96 35.71 34.79 33.61 33.13 28.94
46.14 45.72 45.21 45.06 44.92 44.94 44.79 45.07 46.10 44.76 42.46 34.61 29.94 25.47 33.06 36.17 32.89 30.42 29.43 28.71 29.61 35.72 34.44 35.74 34.52 35.89 33.21 31.56 34.17 31.36 32.18 37.56 40.32 40.02 40.91 39.72 34.06 29.03 23.84 27.96 32.22 29.69 32.73 34.01 32.48 27.92 28.51
46.14 45.44 44.91 44.82 44.80 44.74 44.49 44.59 45.35 44.78 42.03 34.19 26.39 23.99 28.98 26.43 29.07 29.52 30.28 28.30 27.62 27.20 33.46 34.55 30.96 32.88 31.70 28.81 30.06 30.13 32.81 34.20 37.79 39.74 39.21 37.18 28.51 29.81 31.91 33.12 33.28 31.50 31.31 32.28 30.81 31.48 27.79
45.87 45.54 45.11 44.59 44.44 44.58 44.46 44.15 44.51 44.62 41.77 31.29 25.73 26.61 30.14 27.08 29.25 28.99 28.42 25.33 26.20 27.26 28.85 27.83 28.75 31.64 32.77 29.29 29.95 28.21 30.59 31.03 30.37 35.65 35.97 36.67 29.00 29.22 27.49 31.33 31.33 28.64 31.80 32.24 32.31 32.75 32.00
45.19 44.97 44.94 44.34 44.13 44.04 43.94 44.32 44.22 44.47 39.77 31.04 30.81 33.23 29.96 25.87 27.28 27.51 26.20 26.15 26.73 29.32 29.66 30.91 29.75 28.81 27.27 28.99 31.70 30.57 30.86 31.49 31.03 30.38 31.42 31.43 29.64 28.21 24.25 29.42 29.14 26.27 30.20 31.31 32.64 34.30 33.66
45.46 44.76 44.47 44.39 43.90 43.42 43.58 43.99 44.19 44.66 39.40 34.25 32.46 32.02 24.80 21.48 25.93 25.44 26.48 27.89 27.57 28.74 26.45 30.35 29.79 28.31 31.78 33.38 33.04 32.84 32.14 31.43 31.34 31.32 34.19 29.44 29.00 29.24 25.04 28.10 19.75 31.52 35.81 35.89 33.75 35.08 37.01
45.55 45.04 44.76 44.50 43.93 43.46 43.31 43.77 43.94 44.54 41.47 35.82 33.70 31.39 25.30 19.17 25.68 25.76 26.52 26.47 27.62 28.29 27.09 27.15 29.16 31.99 33.04 30.13 25.48 20.90 23.16 26.84 29.33 31.30 32.38 34.26 29.86 25.52 23.40 24.16 27.89 31.06 34.05 33.57 32.15 32.01 37.40
45.19 44.96 44.73 44.96 44.65 44.43 44.08 43.92 43.96 44.06 43.73 37.52 35.52 34.03 30.08 22.99 22.12 27.67 25.85 26.88 23.63 23.30 23.97 26.78 32.03 33.75 32.39 28.68 23.77 16.60 14.98 21.56 21.55 29.09 35.21 33.74 33.92 27.71 26.56 21.36 18.76 30.06 34.97 39.10 37.82 28.02 36.82
45.14 45.07 45.20 45.20 44.83 44.55 44.18 44.11 43.65 43.55 44.10 39.81 37.56 37.49 33.42 26.01 28.39 28.32 24.77 24.70 28.09 25.70 23.42 26.16 28.66 29.90 32.28 24.52 21.35 19.69 18.46 25.50 19.80 21.86 25.14 27.62 28.64 25.06 24.91 23.53 27.68 34.19 37.17 38.67 26.14 29.17 37.65
45.09 45.12 44.88 44.76 44.62 44.55 44.31 44.26 43.94 43.08 43.37 40.26 38.16 39.57 35.75 30.29 29.69 31.66 31.10 27.94 28.24 27.83 23.36 26.96 25.40 25.26 26.04 22.98 22.54 22.86 22.11 24.21 23.74 25.00 24.28 24.14 24.74 25.60 27.59 24.10 21.71 35.80 34.80 30.67 36.37 37.06 38.67
44.86 44.67 44.55 44.26 44.41 44.40 44.36 44.23 43.52 43.20 42.75 39.79 36.57 39.00 39.68 33.39 31.34 34.20 34.96 35.60 34.03 33.10 29.79 28.93 26.79 24.92 27.01 24.72 24.37 24.53 22.15 22.83 24.18 19.56 31.25 23.92 29.78 27.70 29.22 29.86 35.52 35.28 36.65 38.76 39.16 38.15 38.09
MSLP
1011.70 1011.77 1012.45 1012.83 1013.50 1013.72 1013.95 1014.21 1014.79 1015.36 1015.82 1016.21 1016.67 1016.96 1017.30 1017.48 1017.62 1018.01 1018.17 1018.38 1018.67 1018.68 1018.60 1018.62 1018.68 1018.12 1017.51 1017.28 1015.26 1013.87 1013.87 1014.02 1013.96 1014.07 1014.13 1013.93 1013.83 1013.86 1013.70 1013.53 1013.40 1012.98 1012.55 1012.24 1011.64 1011.29 1010.96
1010.38 1011.14 1011.49 1011.99 1012.52 1013.07 1013.43 1013.53 1013.80 1014.50 1015.06 1015.67 1016.11 1016.38 1016.77 1017.06 1017.32 1017.56 1017.78 1018.04 1018.37 1018.63 1018.64 1018.63 1018.55 1018.38 1017.86 1016.98 1014.01 1013.87 1014.07 1014.06 1013.96 1014.02 1014.16 1013.90 1013.89 1014.02 1014.02 1013.55 1013.38 1013.02 1012.82 1012.33 1011.76 1011.33 1010.94
1009.58 1009.90 1010.71 1011.13 1011.69 1012.57 1013.02 1013.23 1013.15 1013.97 1014.11 1014.92 1015.49 1015.98 1016.15 1016.61 1016.94 1017.20 1017.49 1017.83 1018.23 1018.65 1018.47 1018.29 1018.36 1018.27 1017.73 1015.44 1013.79 1014.08 1014.06 1014.04 1013.81 1013.88 1013.86 1013.72 1013.86 1013.87 1014.16 1013.79 1013.35 1012.94 1012.79 1012.07 1011.67 1011.15 1010.72
1008.84 1009.35 1009.87 1010.47 1011.24 1012.10 1012.62 1013.11 1013.10 1013.62 1013.93 1014.22 1014.82 1015.35 1015.87 1016.21 1016.55 1016.83 1017.20 1017.79 1018.34 1018.60 1018.54 1018.49 1018.56 1018.20 1016.62 1014.12 1014.00 1013.79 1013.63 1013.74 1013.72 1013.72 1013.76 1013.61 1013.84 1013.85 1014.01 1013.90 1013.53 1013.10 1012.89 1012.33 1011.31 1010.85 1010.51
1008.72 1009.04 1009.64 1010.59 1011.47 1012.29 1012.54 1013.01 1013.24 1013.45 1013.67 1014.32 1014.42 1014.90 1015.57 1016.02 1016.70 1017.23 1017.72 1018.02 1018.19 1018.37 1018.20 1018.78 1018.63 1017.87 1015.89 1013.96 1013.90 1013.03 1013.19 1013.42 1013.51 1013.59 1013.73 1013.68 1013.86 1014.03 1014.13 1013.95 1013.80 1013.59 1012.66 1012.52 1011.65 1010.89 1010.64
1008.75 1009.60 1010.02 1010.95 1011.28 1011.90 1012.70 1013.09 1013.20 1013.42 1013.96 1014.49 1014.38 1014.91 1015.59 1016.11 1016.76 1017.28 1017.55 1017.81 1018.16 1018.47 1018.51 1018.43 1018.20 1018.07 1015.19 1013.69 1013.18 1012.95 1013.27 1013.26 1013.35 1013.59 1013.86 1013.92 1014.29 1014.28 1014.24 1013.91 1013.15 1013.12 1013.02 1012.61 1011.91 1011.18 1010.90
1009.00 1009.15 1010.09 1010.55 1011.55 1011.60 1012.12 1012.96 1013.43 1013.66 1014.32 1014.56 1014.61 1015.62 1015.97 1016.64 1017.05 1017.46 1017.57 1017.98 1018.68 1018.57 1018.20 1016.91 1016.51 1015.46 1014.39 1013.54 1013.31 1012.99 1013.04 1013.20 1013.35 1013.64 1013.63 1014.02 1013.98 1013.60 1012.60 1012.81 1012.79 1013.12 1013.11 1012.70 1012.18 1011.56 1011.26
1008.69 1009.00 1009.67 1010.08 1011.25 1011.60 1011.79 1012.22 1013.23 1013.84 1014.48 1015.03 1015.49 1016.10 1016.42 1016.90 1017.38 1017.28 1017.09 1017.26 1017.61 1018.00 1017.26 1016.05 1015.70 1015.41 1014.30 1014.11 1013.82 1013.21 1012.92 1013.34 1013.39 1013.75 1013.86 1014.36 1013.12 1012.35 1012.68 1012.87 1012.91 1012.96 1013.09 1012.78 1012.42 1011.87 1011.72
1008.15 1008.70 1009.41 1010.09 1010.89 1011.21 1011.94 1012.11 1012.76 1013.46 1014.25 1014.75 1015.60 1016.23 1016.63 1017.05 1017.35 1017.41 1017.36 1017.46 1017.27 1017.72 1017.52 1015.43 1014.44 1013.98 1013.62 1013.91 1013.10 1012.88 1012.92 1012.87 1013.13 1013.66 1013.60 1013.09 1012.44 1012.52 1012.68 1012.67 1012.90 1012.50 1012.40 1012.50 1012.41 1012.01 1011.45
1007.96 1008.43 1009.07 1010.11 1010.76 1010.99 1011.47 1012.01 1012.67 1013.40 1014.09 1014.67 1015.04 1016.17 1016.54 1016.87 1017.74 1017.66 1017.57 1017.44 1017.18 1017.64 1017.58 1014.79 1014.19 1013.11 1013.35 1013.13 1012.88 1012.14 1012.09 1012.46 1012.94 1013.12 1013.58 1013.06 1012.22 1012.31 1012.68 1012.42 1012.67 1012.15 1012.02 1012.20 1012.43 1012.79 1011.80
1008.00 1008.48 1009.34 1009.89 1010.76 1011.18 1011.80 1012.27 1012.88 1013.27 1013.89 1014.67 1015.32 1015.74 1016.32 1016.53 1017.11 1017.58 1017.16 1017.28 1017.17 1017.59 1017.04 1013.77 1013.23 1013.06 1013.25 1013.18 1012.59 1012.48 1012.02 1012.27 1012.01 1012.85 1013.50 1012.40 1012.16 1012.22 1012.18 1011.92 1012.48 1011.84 1011.90 1012.32 1012.52 1012.63 1012.21
1008.32 1008.99 1009.69 1010.37 1011.00 1011.44 1012.15 1012.76 1013.22 1013.49 1013.75 1014.25 1014.79 1015.46 1016.06 1016.77 1017.15 1017.31 1017.06 1017.11 1017.17 1017.82 1015.40 1013.52 1013.05 1013.34 1013.60 1012.93 1012.49 1012.48 1012.07 1012.42 1012.54 1013.00 1012.91 1012.64 1012.67 1012.35 1012.04 1011.84 1012.12 1012.44 1012.43 1012.67 1013.09 1013.16 1011.80
1008.68 1009.54 1010.08 1010.77 1011.32 1011.76 1012.28 1012.89 1013.13 1013.67 1013.86 1013.86 1014.52 1015.42 1015.85 1016.50 1016.90 1017.02 1017.02 1017.07 1017.73 1016.94 1014.33 1013.83 1013.43 1013.78 1013.43 1012.74 1012.71 1012.51 1012.75 1012.85 1012.84 1012.89 1012.50 1012.37 1012.00 1011.83 1011.88 1011.89 1012.04 1012.45 1012.74 1012.76 1013.11 1013.05 1010.84
1009.00 1009.75 1010.47 1010.96 1011.49 1012.16 1012.58 1013.12 1013.55 1013.80 1013.84 1014.25 1014.57 1015.27 1015.86 1016.49 1016.61 1016.72 1016.86 1017.52 1017.50 1015.69 1014.83 1014.03 1013.75 1013.89 1013.82 1012.60 1012.77 1012.82 1013.20 1013.11 1012.93 1012.86 1012.73 1012.24 1011.75 1011.47 1011.57 1011.72 1011.45 1011.85 1012.25 1012.40 1012.53 1012.64 1011.48
1009.34 1009.87 1010.70 1011.23 1011.80 1012.41 1012.83 1013.31 1013.80 1014.08 1014.11 1014.33 1014.81 1015.30 1016.28 1016.76 1016.58 1016.71 1017.02 1017.36 1016.32 1015.95 1015.30 1014.90 1014.53 1014.28 1014.19 1013.44 1013.14 1013.25 1013.49 1013.84 1013.73 1013.72 1013.40 1012.71 1012.30 1011.77 1011.39 1011.20 1011.54 1011.46 1012.04 1011.82 1012.92 1013.71 1013.08
1009.83 1009.96 1010.69 1011.48 1012.01 1012.49 1013.07 1013.48 1013.94 1014.13 1014.26 1014.55 1015.28 1016.11 1017.12 1017.31 1016.64 1016.77 1017.22 1017.01 1016.78 1016.38 1015.73 1015.28 1015.06 1015.08 1014.81 1014.60 1014.41 1014.52 1014.35 1015.00 1014.73 1014.53 1013.90 1013.78 1013.13 1012.46 1011.78 1011.31 1011.32 1011.32 1011.70 1012.29 1013.80 1013.62 1012.50
1009.92 1010.30 1010.88 1011.59 1012.29 1012.83 1013.25 1013.59 1014.03 1014.28 1014.44 1014.82 1015.95 1016.69 1017.41 1016.93 1016.53 1017.08 1017.17 1017.24 1017.12 1016.68 1016.19 1015.77 1015.56 1015.74 1015.83 1015.86 1015.61 1015.63 1015.38 1016.00 1015.68 1015.28 1014.67 1014.41 1014.50 1013.38 1012.82 1012.17 1012.10 1012.09 1011.99 1012.43 1013.00 1013.94 1012.65
1010.00 1010.71 1011.17 1011.96 1012.69 1013.01 1013.42 1013.73 1014.15 1014.39 1014.56 1014.92 1016.73 1017.77 1017.28 1016.67 1017.39 1017.63 1017.41 1017.36 1017.38 1016.91 1016.43 1016.31 1015.98 1016.14 1016.41 1016.32 1016.25 1016.15 1016.01 1016.23 1016.35 1016.09 1015.81 1015.89 1015.64 1014.95 1014.06 1013.24 1012.92 1013.12 1013.36 1013.61 1014.35 1014.48 1013.53
1010.52 1011.01 1011.66 1012.21 1012.72 1013.26 1013.67 1013.89 1014.17 1014.42 1014.50 1015.44 1016.94 1017.91 1017.44 1017.37 1017.75 1017.95 1017.87 1017.67 1017.58 1017.26 1017.25 1017.08 1016.93 1017.08 1017.03 1017.09 1017.07 1016.70 1016.43 1016.60 1016.57 1016.58 1016.71 1016.83 1016.68 1015.82 1013.96 1014.00 1014.05 1014.20 1014.52 1015.05 1015.46 1015.36 1013.88
1010.75 1011.34 1011.88 1012.43 1013.00 1013.40 1013.73 1014.08 1014.30 1014.50 1014.74 1015.50 1017.34 1018.52 1018.14 1017.97 1018.20 1017.94 1017.90 1018.11 1018.03 1017.83 1017.75 1017.64 1017.53 1017.59 1017.88 1017.79 1017.50 1017.17 1017.02 1017.10 1017.11 1017.10 1017.30 1017.44 1017.01 1016.75 1015.90 1014.74 1015.17 1015.32 1014.95 1015.22 1015.55 1015.23 1013.75
1010.95 1011.52 1012.13 1012.49 1013.04 1013.57 1013.93 1014.20 1014.42 1014.67 1014.82 1015.69 1017.73 1018.57 1018.49 1018.54 1018.46 1018.31 1018.09 1018.55 1018.38 1018.29 1018.20 1018.04 1017.95 1017.89 1018.18 1018.29 1018.27 1018.06 1017.90 1017.77 1017.64 1017.55 1017.61 1017.66 1017.42 1017.23 1016.29 1015.42 1015.42 1015.42 1015.04 1014.70 1014.67 1013.93 1013.62
1011.11 1011.76 1012.37 1012.83 1013.14 1013.49 1013.93 1014.24 1014.53 1014.71 1014.81 1016.14 1017.75 1018.35 1018.68 1018.73 1018.46 1018.54 1018.66 1018.92 1018.62 1018.58 1018.41 1018.33 1018.45 1018.54 1018.77 1018.97 1018.96 1018.82 1018.92 1018.75 1018.50 1018.07 1018.21 1018.31 1017.71 1017.44 1016.61 1016.01 1015.60 1015.14 1014.50 1013.53 1013.66 1012.78 1012.36
1011.37 1011.90 1012.45 1012.94 1013.25 1013.68 1014.10 1014.30 1014.54 1014.85 1015.22 1016.71 1018.11 1018.17 1018.02 1019.33 1018.97 1018.77 1018.74 1018.84 1018.76 1018.78 1018.87 1018.85 1019.02 1019.24 1019.30 1019.48 1019.54 1019.61 1019.65 1019.52 1019.12 1018.89 1018.71 1018.53 1017.95 1017.27 1015.84 1015.39 1015.02 1014.32 1012.24 1012.22 1011.81 1011.42 1011.10
1011.47 1012.02 1012.56 1012.98 1013.43 1013.85 1014.17 1014.48 1014.89 1015.34 1015.62 1016.68 1017.71 1018.05 1018.61 1019.61 1019.36 1019.10 1018.91 1019.02 1019.07 1019.22 1019.37 1019.54 1019.71 1019.67 1019.73 1019.74 1019.53 1019.18 1018.94 1018.53 1018.14 1017.48 1017.72 1017.37 1017.46 1017.25 1015.63 1015.20 1013.51 1011.19 1010.84 1010.81 1010.85 1010.03 1009.85
1011.49 1011.99 1012.54 1013.01 1013.47 1013.92 1014.35 1014.68 1015.03 1015.43 1015.88 1016.72 1017.65 1018.11 1018.97 1019.72 1019.41 1019.39 1019.31 1019.41 1019.67 1019.79 1019.97 1019.93 1019.85 1019.68 1019.75 1020.06 1020.10 1019.42 1018.51 1017.82 1016.33 1015.47 1015.66 1015.79 1016.47 1016.10 1015.16 1013.47 1011.96 1010.56 1010.13 1010.02 1009.85 1008.68 1008.80
1011.60 1012.05 1012.50 1012.99 1013.49 1013.98 1014.38 1014.78 1015.21 1015.58 1016.00 1016.68 1017.61 1018.09 1018.78 1019.41 1019.40 1019.04 1019.32 1019.53 1019.94 1020.21 1020.35 1019.87 1019.46 1019.49 1019.99 1020.13 1020.28 1019.74 1018.59 1017.31 1016.09 1014.91 1014.50 1015.09 1015.32 1015.50 1014.11 1012.93 1011.01 1008.99 1009.19 1009.23 1009.42 1008.93 1008.26
1011.53 1012.01 1012.46 1012.98 1013.50 1013.99 1014.40 1014.85 1015.27 1015.63 1016.14 1016.80 1017.59 1017.90 1018.69 1019.29 1019.17 1019.21 1019.30 1019.43 1019.64 1019.94 1020.08 1019.91 1019.57 1019.61 1019.65 1019.97 1020.07 1019.52 1018.31 1017.20 1015.92 1014.78 1014.20 1014.24 1013.99 1013.30 1012.49 1011.97 1009.67 1008.51 1008.79 1009.20 1009.45 1008.68 1008.22
1011.41 1011.94 1012.45 1012.94 1013.48 1013.95 1014.39 1014.88 1015.34 1015.80 1016.23 1016.92 1017.61 1017.80 1018.43 1018.88 1018.87 1018.85 1018.89 1019.00 1019.19 1019.21 1019.40 1019.80 1019.84 1019.71 1020.00 1019.89 1019.67 1018.81 1017.83 1016.46 1015.30 1014.31 1013.77 1013.08 1012.72 1011.65 1011.62 1010.66 1009.37 1008.36 1008.92 1008.77 1008.14 1008.29 1008.32
1011.31 1011.81 1012.31 1012.83 1013.33 1013.83 1014.31 1014.75 1015.24 1015.71 1016.18 1016.88 1017.62 1017.84 1018.26 1018.98 1018.47 1018.33 1018.19 1018.12 1017.72 1017.92 1018.65 1019.06 1018.92 1018.97 1019.20 1019.43 1019.35 1018.78 1017.77 1016.67 1015.22 1013.85 1012.99 1012.49 1011.58 1011.07 1011.02 1009.39 1009.02 1008.56 1007.78 1007.74 1008.07 1008.23 1008.54
Wind_Speed
26 25 23 21 19 19 19 18 16 14 13 12 12 11 11 11 10 10 9 8 8 6 3 3 8 11 6 4 10 1 3 4 1 2 2 2 3 1 1 2 4 4 5 4 7 9 6
27 25 23 22 20 19 19 19 17 15 13 12 12 12 12 11 11 11 10 9 9 5 2 3 6 9 1 7 3 3 3 4 1 2 1 0 2 0 2 2 2 1 6 10 7 6 4
25 26 23 21 19 17 17 15 15 14 15 14 13 13 13 13 12 10 10 10 8 5 3 3 3 1 4 18 3 3 4 2 3 4 3 2 2 2 1 4 2 2 6 8 7 4 5
15 23 24 18 16 14 13 12 11 11 11 12 13 11 10 8 9 8 9 8 5 3 2 3 2 1 8 5 2 7 2 5 6 7 5 4 1 2 2 4 3 3 1 5 3 7 4
14 15 14 16 12 11 11 11 10 9 10 11 12 13 13 13 11 10 8 7 5 3 2 2 1 1 10 5 4 6 7 4 3 4 5 2 3 2 2 2 3 1 7 6 7 5 3
16 15 19 17 17 13 6 7 7 9 10 12 14 14 14 13 12 11 10 5 5 3 2 2 2 2 6 4 2 2 2 2 1 6 4 3 3 3 2 6 7 5 6 4 6 2 6
15 17 18 17 14 15 14 12 9 10 9 10 14 13 15 13 10 8 7 5 3 2 3 8 5 4 2 5 3 1 3 4 2 2 6 4 6 10 19 16 8 2 4 9 6 7 5
16 16 19 19 16 14 15 18 14 11 10 9 12 11 12 10 7 6 2 4 1 2 6 12 16 10 9 2 5 4 4 4 4 6 6 3 13 18 5 10 12 11 14 17 13 14 10
16 14 18 18 18 18 15 14 16 15 13 13 12 12 12 10 5 3 2 3 6 3 4 7 8 7 7 12 12 13 8 4 5 7 12 16 5 6 11 9 9 12 16 11 14 8 10
14 15 15 14 12 14 15 12 15 14 13 13 17 15 13 12 3 3 1 3 4 1 4 6 4 4 3 7 6 10 13 10 6 14 6 12 9 9 6 8 14 12 11 16 14 7 8
16 17 16 17 14 14 14 12 12 10 15 15 16 17 13 4 6 3 2 5 5 1 3 3 3 1 3 7 2 2 1 5 20 9 6 5 3 8 14 13 11 8 7 10 9 8 6
18 19 19 18 16 15 14 12 10 9 9 17 17 18 15 4 2 2 4 5 3 4 9 2 4 4 3 4 2 2 4 2 3 9 6 6 1 3 4 3 11 2 2 1 3 3 10
20 19 19 18 16 15 14 12 11 8 7 10 18 19 10 4 3 5 4 3 5 5 3 2 2 3 4 3 4 5 5 6 4 6 9 10 18 8 4 8 2 5 2 3 4 6 11
21 20 18 17 15 14 13 12 10 8 6 8 15 20 6 2 3 5 2 4 4 2 2 3 1 4 3 2 1 2 4 3 3 1 2 1 3 6 5 13 8 9 9 5 5 5 5
21 21 18 17 16 14 12 11 10 8 9 7 13 4 4 2 4 2 4 4 5 4 1 3 2 1 3 4 3 3 2 4 6 4 4 1 4 1 1 6 7 3 9 13 6 8 3
20 21 19 16 15 13 12 11 10 8 9 7 4 3 2 6 3 3 3 8 3 1 2 1 2 2 2 7 4 4 3 6 5 6 3 3 6 5 3 1 5 6 0 1 4 4 6
19 18 17 16 14 12 11 11 9 9 9 9 4 4 3 6 1 3 5 5 3 3 2 3 2 3 3 2 3 3 4 4 5 6 7 3 2 2 5 1 6 6 6 6 7 5 7
17 16 16 15 13 11 11 11 10 9 9 9 5 3 3 4 3 2 4 6 2 2 2 3 3 3 2 2 1 1 1 2 2 2 3 4 2 5 7 13 12 12 11 5 3 3 5
17 16 16 15 13 12 11 11 10 8 6 4 4 3 1 1 4 3 2 4 2 2 3 3 4 3 4 2 2 2 2 3 3 3 3 1 1 6 12 5 3 5 3 2 4 4 8
17 16 15 15 13 12 11 10 10 9 8 6 4 3 2 3 1 4 5 3 4 0 2 4 5 2 1 4 3 4 1 3 2 3 4 2 5 7 11 15 4 6 7 5 3 5 7
16 15 14 14 13 12 11 10 10 9 7 6 3 2 1 4 3 4 3 4 6 6 2 3 1 5 5 5 4 7 6 4 3 4 3 4 7 5 11 16 11 11 13 16 16 19 13
16 15 14 13 13 11 10 9 8 9 8 6 4 4 1 2 3 7 4 3 7 2 4 2 4 4 4 5 4 4 5 3 4 1 0 2 3 5 9 13 15 14 19 22 19 24 19
17 16 14 14 13 11 10 9 8 7 8 3 0 1 3 3 3 5 4 5 7 6 3 0 2 1 1 1 1 5 8 9 11 10 7 5 4 4 10 5 7 11 25 20 17 17 13
16 16 15 14 13 11 10 9 9 8 7 4 1 3 4 2 3 4 4 8 6 7 2 3 4 4 3 4 10 6 8 14 17 19 16 14 12 8 10 7 12 9 3 10 13 20 14
15 17 16 15 13 11 10 9 9 10 9 4 2 3 3 3 2 5 6 3 3 2 2 4 4 5 1 2 1 4 3 3 12 20 20 20 15 9 9 12 14 18 9 7 7 18 8
14 16 16 15 13 11 9 10 9 9 10 4 2 3 3 5 4 2 5 6 4 4 2 4 5 3 4 2 2 4 4 4 5 4 6 16 17 11 12 13 16 7 4 6 7 11 4
15 15 14 14 14 12 11 10 9 7 11 4 2 4 4 2 2 6 4 5 5 3 2 3 2 2 3 4 5 5 5 4 6 8 6 5 8 19 18 16 13 7 10 6 7 5 3
14 14 13 13 14 13 12 11 10 9 9 4 2 4 3 2 3 5 5 5 4 5 5 4 1 0 2 6 4 4 5 7 9 10 10 12 7 4 6 10 16 7 6 10 3 4 3
14 13 12 9 14 13 13 12 11 11 10 7 2 2 3 2 4 3 8 11 14 9 5 5 4 4 4 3 1 2 3 3 5 10 6 12 11 4 8 6 2 5 3 3 4 3 3
Wind_Direction
217 209 207 207 208 206 205 202 200 201 204 209 212 212 220 226 224 230 230 212 211 220 240 321 320 332 347 347 255 292 61 11 21 6 49 30 48 56 270 295 310 213 285 292 287 295 266
211 211 206 205 207 210 207 200 193 197 201 211 212 210 214 222 227 225 223 209 196 200 256 318 322 319 170 276 264 157 28 346 85 82 355 246 139 208 270 244 209 301 288 286 294 284 267
215 210 206 202 201 205 207 196 182 196 193 202 212 215 209 216 226 219 217 183 176 197 220 258 290 344 234 248 230 315 301 234 178 175 180 216 146 119 282 284 309 281 298 297 244 254 254
222 210 201 189 176 160 160 165 171 189 204 194 204 208 219 227 231 197 147 140 147 179 256 282 322 136 246 256 313 287 207 286 235 232 197 225 180 167 197 301 325 291 187 279 311 215 229
103 117 129 127 130 146 153 161 165 176 182 184 157 138 130 113 106 102 114 132 144 168 160 167 225 146 261 319 259 270 183 218 154 158 190 125 132 140 162 199 297 333 262 233 291 225 250
136 135 132 138 138 144 159 162 154 147 143 143 133 125 126 129 129 138 142 148 143 130 144 167 333 304 253 253 252 135 172 229 156 118 113 139 89 154 162 181 237 213 226 224 248 297 236
169 153 159 151 164 165 164 163 151 120 121 120 111 126 120 118 119 147 136 125 158 169 233 212 200 245 312 305 291 313 158 137 106 170 171 186 177 200 217 205 213 195 250 263 248 260 278
183 174 175 159 172 173 169 159 148 135 125 114 118 118 119 116 134 138 143 130 94 81 297 240 246 255 253 27 317 255 139 179 161 217 129 147 231 222 202 200 217 230 255 262 274 267 273
180 178 165 171 176 173 174 168 162 158 154 148 143 144 137 127 122 37 73 108 122 142 273 273 220 232 228 192 227 238 175 171 190 197 201 233 238 223 206 205 202 219 223 243 254 305 278
149 150 147 149 156 178 179 167 174 168 160 162 154 155 145 149 150 157 195 224 116 102 311 269 238 272 182 161 255 224 213 200 196 235 200 252 242 216 199 221 211 245 207 234 247 261 270
135 131 137 132 125 116 124 130 144 154 173 171 163 152 152 186 137 172 159 142 135 140 355 133 165 73 185 205 331 29 230 202 228 207 187 240 189 205 231 243 190 264 188 210 223 225 284
131 130 125 121 125 120 120 124 131 143 178 179 162 153 135 93 72 215 149 132 88 70 231 121 114 168 170 232 291 88 92 28 229 209 230 264 354 177 206 239 203 142 203 154 75 181 253
128 129 129 131 126 121 117 117 111 116 125 157 161 153 156 143 186 160 152 88 82 192 11 70 61 197 232 182 219 159 159 183 179 164 223 252 251 227 199 247 146 191 184 219 211 193 251
133 132 134 131 127 127 126 121 114 106 97 165 166 156 145 150 138 136 100 74 191 171 243 352 335 268 200 154 186 141 120 151 248 75 108 194 309 165 195 230 238 205 204 233 246 211 303
141 137 136 134 131 129 126 123 119 116 117 136 144 143 129 32 115 114 106 187 208 189 270 349 273 93 20 16 42 23 80 15 22 221 220 303 250 33 338 228 195 207 212 237 260 258 243
150 138 136 134 134 135 132 124 123 123 122 119 102 96 60 329 197 99 143 210 214 297 347 331 117 12 80 1 48 33 33 360 10 17 239 12 298 304 325 9 205 244 213 97 112 253 233
138 134 134 135 137 138 137 134 123 122 122 125 69 105 245 313 160 75 187 168 187 249 234 70 108 92 81 72 49 18 28 21 357 346 43 42 348 301 323 320 341 291 253 233 248 229 256
136 140 138 140 145 148 146 138 132 127 117 64 109 109 313 318 113 167 166 147 169 25 15 37 84 88 113 113 29 223 171 79 259 308 41 24 128 291 279 282 294 258 302 331 291 265 263
141 142 146 146 146 146 144 141 139 116 111 122 83 111 285 75 160 148 119 114 121 63 40 56 59 42 23 82 295 227 221 147 81 67 106 85 87 316 305 155 54 59 14 145 209 243 243
141 146 149 148 150 146 140 136 133 114 110 88 104 104 347 85 167 146 133 119 125 107 166 170 186 127 275 280 236 273 320 25 113 140 172 262 218 216 253 269 258 266 258 256 206 249 283
144 145 149 149 151 149 143 138 131 120 98 91 38 164 258 173 190 111 95 106 150 164 219 196 42 190 186 223 218 245 267 280 200 291 185 219 238 230 245 259 259 254 256 259 244 256 252
148 149 152 152 146 143 146 139 133 122 96 80 119 132 119 108 104 127 131 181 180 148 159 206 185 135 183 221 267 297 357 310 284 325 243 320 259 204 263 253 251 245 250 255 261 259 261
158 157 157 157 150 150 151 147 140 130 68 95 155 68 93 348 105 140 177 169 183 159 232 319 97 140 217 258 54 300 274 255 249 261 268 272 267 242 261 226 233 244 244 244 244 243 225
166 166 166 163 159 158 156 155 158 139 92 112 135 105 83 132 151 189 144 181 170 186 154 145 101 134 186 6 329 282 243 240 239 240 223 238 232 251 265 246 238 251 232 227 227 247 240
174 175 175 171 168 165 166 167 164 147 116 87 132 97 111 119 171 164 161 146 155 239 258 237 232 211 90 354 259 328 292 268 240 232 221 212 222 240 247 239 274 284 247 210 195 278 237
179 180 178 178 173 169 169 167 164 159 137 91 92 104 97 112 230 123 177 193 202 205 261 245 254 195 151 139 131 216 240 272 278 283 230 215 216 220 242 248 248 264 189 166 136 274 222
178 181 181 180 178 173 171 169 169 166 152 115 115 123 91 116 240 156 181 176 163 158 180 270 273 137 161 156 195 217 246 267 251 246 242 211 219 222 230 240 255 199 156 155 199 254 155
181 182 185 184 182 180 176 174 176 178 169 129 115 165 144 195 227 200 199 167 160 173 167 176 54 353 136 201 209 208 227 227 242 242 258 252 241 247 257 235 238 169 108 203 190 191 162
185 183 178 178 192 188 188 187 189 188 194 136 184 144 123 207 251 210 231 221 217 189 162 205 195 170 183 180 183 297 291 294 294 277 253 243 225 271 209 226 250 235 208 192 185 158 195